sat.trackr.live / text

‹ back to catalog

STARLINK-6237

NORAD 57055 · 2023-088H

PAYLOAD ACTIVE UNKNOWN

§ Identity

Operator
Country
US
Launch date
2023-06-22
Launch site
AFWTR
Launch vehicle
Mass (kg)
RCS (m²)

Purposes: comms

External: N2YO · Heavens-Above · Gunter

§ Orbital elements

Epoch: 2026-09-20T20:40:29.517600Z

Period
94.27 min
Inclination
43.0004°
Eccentricity
0.0002546
Mean motion
15.27581761 rev/d
Perigee alt
481.3 km
Apogee alt
484.8 km
Semi-major
6,861.2 km
B*
1.7115e-6
RAAN
88.2414°
Arg perigee
247.7488°
Mean anomaly
112.3093°
Rev number
18,018

§ Raw data

STARLINK-62371 57055U 23088H   26263.86145275 -.00000216  00000+0  17115-5 0  99992 57055  43.0004  88.2414 0002546 247.7488 112.3093 15.27581761180189

JSON: /api/v1/satellites/57055 · /tle

For live sub-satellite position, see the globe view (requires WebGL).

§ Visibility from observer

Set your observer location to see the next 7 days of passes ≥ 10°. The values pass through the URL so the page stays shareable.

No JS? Fill the form by hand. The geolocation button needs JavaScript.